Hourly Data Report for August 01, 2013

All times are specified in Local Standard Time (LST). Add 1 hour to adjust for Daylight Saving Time where and when it is observed.

VICTORIA INTL A
BRITISH COLUMBIA

48°38'50.000" N
123°25'33.000" W
19.50 m
1018621
71799
YYJ

Download Data

Hourly Data (August 2013)
Hourly Data Report for August 1, 2013
Temp Definition
°C
Dew Point Temp Definition
°C
Rel Hum Definition
%
Wind Dir Definition
10's deg

Wind Spd Definition
km/h
Visibility Definition
km
Stn Press Definition
kPa
Hmdx Definition


Wind Chill Definition


Weather Definition


TIME
00:00 Legend Double Dagger 14.6 12.5 87 6 3 48.3 101.41     LegendNANA
01:00 Legend Double Dagger 12.9 11.5 91 7 6 48.3 101.43     Mainly Clear
02:00 Legend Double Dagger 13.0 11.6 91 13 8 48.3 101.42     LegendNANA
03:00 Legend Double Dagger 11.8 10.4 91 36 5 48.3 101.44     LegendNANA
04:00 Legend Double Dagger 12.0 10.9 93 14 4 48.3 101.43     Mainly Clear
05:00 Legend Double Dagger 12.1 11.2 94 13 8 48.3 101.43     LegendNANA
06:00
07:00 Legend Double Dagger 14.0 LegendMM LegendMM 6 9 48.3 101.48     Mainly Clear
08:00 Legend Double Dagger 14.8 11.8 82 8 10 48.3 101.47     LegendNANA
09:00 Legend Double Dagger 14.9 11.5 80 11 14 48.3 101.47     LegendNANA
10:00 Legend Double Dagger 15.8 11.4 75 13 14 48.3 101.47     Clear
11:00 Legend Double Dagger 15.8 11.6 76 13 20 48.3 101.47     LegendNANA
12:00 Legend Double Dagger 16.2 11.6 74 12 22 48.3 101.45     LegendNANA
13:00 Legend Double Dagger 17.0 12.2 73 11 17 48.3 101.41     Mostly Cloudy
14:00 Legend Double Dagger 17.7 12.0 69 11 13 48.3 101.37     LegendNANA
15:00 Legend Double Dagger 16.9 12.1 73 12 14 48.3 101.39     LegendNANA
16:00 Legend Double Dagger 16.8 12.0 73 12 15 48.3 101.34     Mostly Cloudy
17:00 Legend Double Dagger 17.7 12.0 69 10 16 48.3 101.31     LegendNANA
18:00 Legend Double Dagger 17.2 12.0 71 13 22 48.3 101.28     LegendNANA
19:00 Legend Double Dagger 15.9 12.5 80 13 14 48.3 101.28     Mostly Cloudy
20:00 Legend Double Dagger 15.3 12.3 82 14 12 48.3 101.32     LegendNANA
21:00 Legend Double Dagger 14.9 12.1 83 3 5 48.3 101.35     LegendNANA
22:00 Legend Double Dagger 15.4 12.6 83 10 3 48.3 101.34     Mostly Cloudy
23:00 Legend Double Dagger 15.0 12.4 84 24 1 48.3 101.40     LegendNANA

Notes on Data Quality.

Legend

  • E = Estimated
  • M = Missing
  • NA = Not Available
  • ‡ = Partner data that is not subject to review by the National Climate Archives
Date modified: